Flag for Brazil Weather past 2 weeks in Volta Redonda, Rio de Janeiro, Brazil

Now
72 °F

Clear.


Feels Like: 75 °F
Forecast: N/A
Wind: 9 mph from Southeast

Location: Galeao

Current Time: Oct 23, 2014 at 8:25:21 PM

Latest Report: Oct 23, 2014 at 8:00 PM


Visibility: 10 mi

Pressure: 30.01 "Hg

Humidity: 69%

Dew point: 61 °F

Location of Volta RedondaLocation

Historic Weather in Volta Redonda — Graph

°F

Volta Redonda temperature yesterday

Maximum temperature yesterday: 72 °F (at 11:00 AM)
Minimum temperature yesterday: 64 °F (at 5:00 AM)
Average temperature yesterday: 69 °F

Past Weeks' High & Low Weather Summary

 TemperatureHumidityPressure
High104 °F (Oct 13, 3:00 PM)94% (Oct 14, 2:00 AM)30.21 "Hg (Oct 14, 2:00 AM)
Low64 °F (Oct 9, 3:00 AM)15% (Oct 11, 12:00 PM)29.68 "Hg (Oct 19, 4:00 PM)
Average76 °F66%29.98 "Hg
* Reported Oct 8 6:00 PM — Oct 23 7:00 PM, Volta Redonda, Weather by CustomWeather, © 2014

Note: Actual official high and low records may vary slightly from our data, if they occured in-between our weather recording intervals... More about our weather records

Advertising

Volta Redonda weather history for previous 24 hours

 ConditionsComfort  
Time TempWeatherWind HumidityBarometerVisibility
7:00 PM
Oct 23
73 °FClear.12 mph65%30.01 "Hg10 mi
6:00 PM75 °FSunny.17 mph57%30.01 "Hg10 mi
5:00 PM77 °FSunny.16 mph51%30.01 "Hg10 mi
4:00 PM77 °FPassing clouds.20 mph51%30.04 "HgN/A
3:00 PM79 °FPassing clouds.12 mph48%30.04 "HgN/A
2:00 PM81 °FPassing clouds.14 mph42%30.07 "HgN/A
1:00 PM81 °FPassing clouds.7 mph45%30.09 "HgN/A
12:00 PM77 °FPassing clouds.6 mph51%30.12 "HgN/A
11:00 AM75 °FPassing clouds.6 mph57%30.15 "HgN/A
10:00 AM72 °FScattered clouds.7 mph65%30.15 "HgN/A
9:00 AM70 °FBroken clouds.3 mph73%30.18 "HgN/A
8:00 AM70 °FBroken clouds.2 mph69%30.15 "HgN/A
7:00 AM68 °FBroken clouds.2 mph73%30.15 "HgN/A
6:00 AM68 °FPartly cloudy.5 mph73%30.12 "HgN/A
5:00 AM68 °FPassing clouds.8 mph73%30.12 "HgN/A
4:00 AM68 °FPassing clouds.7 mph69%30.12 "HgN/A
3:00 AM68 °FPassing clouds.9 mph69%30.12 "HgN/A
2:00 AM70 °FPassing clouds.7 mph60%30.15 "HgN/A
1:00 AM70 °FPassing clouds.7 mph64%30.18 "HgN/A
12:00 AM70 °FPassing clouds.7 mph64%30.18 "HgN/A
11:00 PM
Oct 22
70 °FPartly cloudy.8 mph64%30.21 "HgN/A
10:00 PM70 °FPassing clouds.6 mph69%30.21 "HgN/A
9:00 PM70 °FPassing clouds.7 mph73%30.18 "HgN/A
8:00 PM70 °FPassing clouds.6 mph69%30.18 "HgN/A
Weather by CustomWeather, © 2014

See weather overviewHow to use our weather pages